Location: Unspecified
(0.0000°N, 0.0000°E)
Time: 01:51:34
(UTC+00:00)

Vanguard 3 - Visible Passes

Search period start: 01 September 2015 00:00
Search period end: 11 September 2015 00:00
Orbit: 508 x 3270 km, 33.3° (Epoch: 31 August)

Date Brightness Start Highest point End Pass type
(mag) Time Alt. Az. Time Alt. Az. Time Alt. Az.
01 Sep 11.1 05:14:09 10° NNW 05:25:41 24° NNE 05:40:34 10° ENE visible
02 Sep 11.1 04:01:52 10° N 04:08:39 15° NNE 04:17:54 10° NE visible
03 Sep 11.0 04:59:25 10° NNW 05:11:00 27° NNE 05:26:30 10° E visible
03 Sep 8.2 18:51:51 10° S 18:54:03 14° SSE 18:54:40 14° SE visible
04 Sep 11.0 03:47:29 10° N 03:54:25 16° NNE 04:04:06 10° ENE visible
04 Sep 8.2 19:49:11 10° SW 19:50:49 23° SW 19:50:49 23° SW visible
05 Sep 10.9 04:44:41 10° NNW 04:56:14 29° NNE 05:12:13 10° E visible
05 Sep 7.8 18:36:35 10° SSW 18:40:11 22° SSE 18:42:18 15° ESE visible
06 Sep 10.9 03:32:59 10° N 03:40:05 17° NNE 03:50:14 10° ENE visible
06 Sep 6.6 19:34:57 10° WSW 19:38:29 60° W 19:38:29 60° W visible
07 Sep 10.8 04:30:00 10° NNW 04:41:21 33° NE 04:57:44 10° E visible
07 Sep 7.3 18:21:37 10° SW 18:26:17 35° SSE 18:29:49 10° E visible
08 Sep 10.7 03:18:26 10° N 03:25:40 19° NNE 03:36:15 10° ENE visible
08 Sep 10.5 05:28:01 10° NW 05:42:09 56° NE 06:01:42 10° ESE visible
08 Sep 7.1 19:20:47 10° WSW 19:25:03 47° NW 19:26:11 34° N visible
09 Sep 10.6 04:15:22 10° NNW 04:26:25 36° NE 04:43:02 10° E visible
10 Sep 10.6 03:03:51 10° N 03:11:10 20° NE 03:22:07 10° ENE visible
10 Sep 10.3 05:13:23 10° NW 05:26:51 63° NE 05:46:32 10° ESE visible
10 Sep 8.0 19:06:43 10° WSW 19:10:59 31° NW 19:13:50 13° NNE visible
